Other Public Products
Issued by NWS Grand Forks, ND

Home | Current Version | Previous Version | Graphics & Text | Print | Product List | Glossary On
Versions: 1 2 3 4 5 6 7 8 9 10 11 12 13 14 15 16 17 18 19 20 21 22 23 24 25 26 27 28 29 30 31 32 33 34 35 36 37 38 39 40 41 42 43 44 45 46 47 48 49 50
000
FPUS83 KFGF 161831
OPUFGF
PRAIRIE TO PINES WEATHER ROUNDUP
NATIONAL WEATHER SERVICE EASTERN NORTH DAKOTA/GRAND FORKS ND
1200 PM CST MON JAN 16 2017

 **SATELLITE DATA USED TO AUGMENT SKY COVER AT AUTOMATED STATIONS**
 *****  WEATHER ACROSS EASTERN NORTH DAKOTA  *****

CITY           SKY/WX    TMP DP  RH WIND       PRES   REMARKS
GRAND FORKS    FAIR      15   8  73 SW7       30.06F WCI   5
6HR MIN TEMP:   3; 6HR MAX TEMP:  15;

GRAND FORKS AF FAIR      20   8  59 W6        30.06F WCI  13
GRAND CITY NWS NOT AVBL
BUXTON           N/A     23  12  62 SW3         N/A
DEVILS LAKE    FAIR      13   8  81 W7        30.04F WCI   3
6HR MIN TEMP:   4; 6HR MAX TEMP:  13;

FARGO          FAIR      16  10  77 SW5       30.09F WCI   9
6HR MIN TEMP:   8; 6HR MAX TEMP:  17;

WAHPETON ARPT  FAIR      18  12  79 CALM      30.09F
$$

 *****  WEATHER ACROSS CENTRAL AND WESTERN NORTH DAKOTA  *****

CITY           SKY/WX    TMP DP  RH WIND       PRES   REMARKS
JAMESTOWN      FAIR      16   8  71 W10       30.05R WCI   4
6HR MIN TEMP:   8; 6HR MAX TEMP:  16;

BISMARCK       FAIR      15   5  64 W6        30.10F WCI   6
6HR MIN TEMP: -10; 6HR MAX TEMP:  17;

MINOT          FAIR      25  18  74 NW9       30.06S WCI  15
6HR MIN TEMP:  12; 6HR MAX TEMP:  25;

MINOT AFB      FAIR      22  17  80 NW13      30.05S WCI  10
6HR MIN TEMP:   7; 6HR MAX TEMP:  22;

GARRISON         N/A     19  12  74 NW9       30.07F WCI   8
6HR MIN TEMP:   8; 6HR MAX TEMP:  19;

WILLISTON      FAIR      14   7  73 SW6       30.13F WCI   5
6HR MIN TEMP:   4; 6HR MAX TEMP:  14;

DICKINSON      FAIR      18  11  74 W13       30.06F WCI   5
6HR MIN TEMP:  11; 6HR MAX TEMP:  18;

HETTINGER      FAIR      19  11  70 NW13      30.09F WCI   6
6HR MIN TEMP:   6; 6HR MAX TEMP:  19;

$$

 *****  OTHER OBSERVATIONS NORTHEAST NORTH DAKOTA  *****

CITY           SKY/WX    TMP DP  RH WIND       PRES   REMARKS
WALHALLA       NOT AVBL
LANGDON        NOT AVBL
CAVALIER         N/A     23  10  58 CALM      30.03F
GRAFTON        FAIR      18   9  68 NW5       30.06F WCI  11
CANDO          NOT AVBL
FORT TOTTEN      N/A     18   8  65 NW7       29.95S WCI   9
ROLLA            N/A    N/A N/A N/A MISG        N/A
RUGBY            N/A     10   7  85 W7        30.04F WCI   0
 ***** THE ABOVE OBSERVATIONS ARE NON NWS ARE NOT QUALITY
        CONTROLLED AND MAY MIS-REPORT RAIN FOR SNOW...
$$

 *****  OTHER OBSERVATIONS SOUTHEAST NORTH DAKOTA *****

CITY           SKY/WX    TMP DP  RH WIND       PRES   REMARKS
COOPERSTOWN    FAIR      14   9  79 W13       30.03F WCI   0
VALLEY CITY    FAIR      16   9  73 SW6       30.07F WCI   7
OAKES          NOT AVBL
GWINNER        FAIR      19  12  73 W8        30.08S WCI   9
SHEYENNE NWR     N/A     18   6  60 W6        29.95S WCI  10
BUFFALO          N/A     16   5  61 S6          N/A  WCI   8
WYNDMERE         N/A     18  16  93 W5          N/A  WCI  11
 ***** THE ABOVE OBSERVATIONS ARE NON NWS ARE NOT QUALITY
       CONTROLLED AND MAY MIS-REPORT RAIN FOR SNOW...
$$

  *****  WEATHER ACROSS NORTHERN MINNESOTA  *****

CITY           SKY/WX    TMP DP  RH WIND       PRES   REMARKS
FLAG ISLAND    FAIR      10   7  85 SE7       30.04F WCI   0
WARROAD        FAIR      19  10  68 CALM      30.05S
ROSEAU         FAIR      12   7  79 CALM      30.05S
HALLOCK        FAIR      10   7  85 S5        30.05F WCI   2
THF RVR FALLS  FAIR      18  10  71 S8        30.06F WCI   8
6HR MIN TEMP:   8; 6HR MAX TEMP:  18;

HALSTAD          N/A     13   7  75 S10         N/A  WCI   0
FOSSTON        FAIR      21  12  68 S10       30.06F WCI  10
BAUDETTE       FAIR      18  10  71 E3        30.04F
6HR MIN TEMP:   1; 6HR MAX TEMP:  18;

WASKISH        FAIR      25  18  74 W3        30.05F
CROOKSTON      FAIR      12   9  85 S6        30.08S WCI   3
$$
  *****  WEATHER ACROSS CENTRAL AND WEST MINNESOTA  *****

CITY           SKY/WX    TMP DP  RH WIND       PRES   REMARKS
BEMIDJI        FAIR      24  21  88 CALM      30.05S
PARK RAPIDS    FAIR      18  14  84 SE5       30.05F FOG     WCI  11
6HR MIN TEMP:   5; 6HR MAX TEMP:  18; 6HR PCP: TRACE;

WADENA         FAIR      19  18  93 CALM      30.06F
DETROIT LAKES  FAIR      23  21  93 CALM      30.06F
MOORHEAD       FAIR      14   9  79 S5        30.09F WCI   6
FERGUS FALLS   FAIR      19  16  86 CALM      30.12F
ELBOW LAKE     FAIR      22  16  79 CALM      30.07F HAZE
6HR MIN TEMP:  11; 6HR MAX TEMP:  21;

MORRIS MN      FAIR      21  18  86 SE8       30.06F WCI  12
STAPLES        FAIR      21  16  79 CALM      30.06F
WHEATON        FAIR      25  19  80 CALM      30.10F
$$
  *****  WEATHER ELSEWHERE ACROSS MINNESOTA  *****

CITY           SKY/WX    TMP DP  RH WIND       PRES   REMARKS
DULUTH         FAIR      30  21  69 NW6       30.08F WCI  24
6HR MIN TEMP:  14; 6HR MAX TEMP:  30;

INTRNTL FALLS  FAIR      25  14  63 NW3       30.06F
6HR MIN TEMP:  -2; 6HR MAX TEMP:  25;

ELY            FAIR      30  19  64 CALM      30.06F
CLOQUET        FAIR      27  18  69 S3        30.08F
BRAINERD       FAIR      22  19  89 CALM      30.09F FOG
6HR MIN TEMP:   2; 6HR MAX TEMP:  22;

HIBBING        FAIR      16  14  92 SE3       30.08F FOG
6HR MIN TEMP:  -8; 6HR MAX TEMP:  16;

ALEXANDRIA     FAIR      22  16  78 SE6       30.07F WCI  14
6HR MIN TEMP:   9; 6HR MAX TEMP:  24;

SAINT CLOUD    FAIR      21  19  92 SE3       30.11F
6HR MIN TEMP:   3; 6HR MAX TEMP:  21;

MINNEAPOLIS    CLOUDY    27  17  66 E6        30.14F WCI  20
6HR MIN TEMP:  14; 6HR MAX TEMP:  27;

$$

  *****  WEATHER ACROSS SOUTH DAKOTA  *****

CITY           SKY/WX    TMP DP  RH WIND       PRES   REMARKS
SIOUX FALLS    CLOUDY    30  23  75 N6        30.04F WCI  24
6HR MIN TEMP:  23; 6HR MAX TEMP:  30;

BROOKINGS      FAIR      24  18  77 CALM      30.04F
WATERTOWN      FAIR      16  13  88 CALM      30.04F FOG
6HR MIN TEMP:   4; 6HR MAX TEMP:  16;

HURON          FAIR      18  11  74 N8        30.08F WCI   8
6HR MIN TEMP:   7; 6HR MAX TEMP:  18;

SISSETON         N/A     25  19  78 N6        30.06F WCI  18
ABERDEEN       FAIR      14   7  73 CALM      30.08F
6HR MIN TEMP:  -2; 6HR MAX TEMP:  18;

MITCHELL       CLOUDY    25  18  74 N3        30.07F
PIERRE         FAIR      14   8  77 W7        30.09F WCI   4
6HR MIN TEMP:   2; 6HR MAX TEMP:  14;

MOBRIDGE       FAIR      13   2  61 NW7       30.07F WCI   3
RAPID CITY     FAIR      34  17  50 N9        30.08F
6HR MIN TEMP:  20; 6HR MAX TEMP:  34;

$$

  *****  SOME WEATHER IN NEARBY STATES *****

CITY           SKY/WX    TMP DP  RH WIND       PRES   REMARKS
GLASGOW MT     FAIR      13   5  70 W7        30.14S WCI   3
6HR MIN TEMP:  -1; 6HR MAX TEMP:  13;

GREAT FALLS MT FAIR      28  14  55 S17       30.09F WCI  16
6HR MIN TEMP:  21; 6HR MAX TEMP:  28;

CHEYENNE WY    CLOUDY    34  13  41 N17G23    30.07R WCI  23
6HR MIN TEMP:  30; 6HR MAX TEMP:  34;

SCOTTSBLUFF NE CLOUDY    38  19  46 NW10      30.10S
6HR MIN TEMP:  34; 6HR MAX TEMP:  39;

OMAHA NE       LGT RAIN  33  30  88 N6        29.94F VSB 1
6HR MIN TEMP:  33; 6HR MAX TEMP:  34; 6HR PCP:  0.31;

DES MOINES IA  LGT RAIN  34  32  92 E7        29.95F FOG
6HR MIN TEMP:  32; 6HR MAX TEMP:  34; 6HR PCP:  0.49;

DAVENPORT IA   LGT RAIN  35  34  96 E10       30.05F FOG
6HR MIN TEMP:  31; 6HR MAX TEMP:  34; 6HR PCP:  0.28;

CHICAGO IL     LGT RAIN  35  34  96 E8        30.15F FOG
6HR MIN TEMP:  32; 6HR MAX TEMP:  35; 6HR PCP:  0.15;

EAU CLAIRE WI  FAIR      23  15  71 NE3       30.16F HAZE
6HR MIN TEMP:   3; 6HR MAX TEMP:  23;

LA CROSSE WI   CLOUDY    31  23  72 NW6       30.12F
                                      6HR PCP:  0.01;

$$

  *****  SOME NATIONAL WEATHER *****

CITY           SKY/WX    TMP DP  RH WIND       PRES   REMARKS
LA GUARDIA NY  PTSUNNY   42  21  43 SW8       30.39F              C1F1C2F2C3F3C4F4C5F5C6F6C7F7C8F8C9F9CaFaCbFbCcFcCdFdCe!


USA.gov is the U.S. government's official web portal to all federal, state and local government web resources and services.